GW4137 Weather Reports


time (UTC)temp
F
wind
direction
speed
knots
gust
knots
rain 1hr
in
rain 24hr
in
rain mn
in
humidity
%
barometer
mb
20260506033052 34 16 0.9 2.6 0.00 0.00 0.00 44 1018.8
20260506031601 37 16 1.7 4.3 0.00 0.00 0.00 41 1018.7
20260506030105 39 16 3.5 7.0 0.00 0.00 0.00 40 1018.6
20260506024546 41 13 6.1 7.8 0.00 0.00 0.00 38 1018.5
20260506023055 43 5 5.2 11.3 0.00 0.00 0.00 37 1018.4
20260506021551 44 5 8.7 13.0 0.00 0.00 0.00 36 1018.4
20260506020050 45 5 8.7 14.8 0.00 0.00 0.00 35 1018.3
20260506014600 46 14 10.4 16.5 0.00 0.00 0.00 33 1018.3
20260506013051 46 352 11.3 15.6 0.00 0.00 0.00 33 1018.2
20260506011555 47 352 13.9 18.2 0.00 0.00 0.00 31 1018.1
20260506010059 47 352 13.9 19.1 0.00 0.00 0.00 30 1018.0
20260506004623 48 352 13.0 18.2 0.00 0.00 0.00 29 1018.0
20260506003053 48 351 13.0 20.9 0.00 0.00 0.00 30 1018.0
20260506001550 48 24 11.3 20.9 0.00 0.00 0.00 31 1018.0
20260506000054 47 352 13.0 20.9 0.00 0.00 0.00 32 1018.1
20260505234613 49 340 12.2 22.6 0.00 0.00 0.00 32 1018.1
20260505233055 47 352 15.6 20.0 0.00 0.00 0.00 33 1018.2
20260505231552 48 9 13.9 18.2 0.00 0.00 0.00 32 1018.2
20260505230056 49 329 14.8 22.6 0.00 0.00 0.00 29 1018.1
20260505224601 49 9 13.9 23.5 0.00 0.00 0.00 31 1018.1
20260505223103 49 5 13.9 21.7 0.00 0.00 0.00 29 1018.0
20260505221610 49 5 16.5 24.3 0.00 0.00 0.00 31 1018.1
20260505220138 49 352 12.2 25.2 0.00 0.00 0.00 32 1018.0
20260505214614 49 351 14.8 23.5 0.00 0.00 0.00 32 1018.1
20260505213053 49 5 13.9 22.6 0.00 0.00 0.00 32 1018.1
20260505211608 49 331 12.2 23.5 0.00 0.00 0.00 32 1018.2
20260505210054 49 332 14.8 23.5 0.00 0.00 0.00 32 1018.2
20260505204551 49 351 14.8 23.5 0.00 0.00 0.00 33 1018.4
20260505203054 49 352 16.5 26.9 0.00 0.00 0.00 33 1018.5
20260505201606 49 9 14.8 24.3 0.00 0.00 0.00 32 1018.4
20260505194602 49 349 11.3 24.3 0.00 0.00 0.00 35 1018.4
20260505193052 49 351 12.2 21.7 0.00 0.00 0.00 35 1018.4
20260505191554 47 321 11.3 21.7 0.00 0.00 0.00 37 1018.7
20260505190052 48 327 12.2 21.7 0.00 0.00 0.00 33 1018.5
20260505184550 47 344 12.2 20.0 0.00 0.00 0.00 38 1018.6
20260505183052 47 360 13.9 23.5 0.00 0.00 0.00 38 1018.7
20260505181555 46 331 10.4 19.1 0.00 0.00 0.00 42 1018.7
20260505180058 46 5 13.0 21.7 0.00 0.00 0.00 41 1018.7
20260505174553 45 350 13.0 17.4 0.00 0.00 0.00 45 1018.9
20260505173100 44 9 13.0 18.2 0.00 0.00 0.00 44 1018.9
20260505171556 43 342 13.0 17.4 0.00 0.00 0.00 45 1018.8
20260505170100 43 338 13.0 19.1 0.00 0.00 0.00 46 1018.9
20260505164548 42 342 12.2 18.2 0.00 0.00 0.00 50 1018.9
20260505163054 42 327 9.6 18.2 0.00 0.00 0.00 53 1019.0
20260505161554 42 344 10.4 18.2 0.00 0.00 0.00 53 1018.9
20260505153054 43 360 7.8 12.2 0.00 0.00 0.00 60 1019.2
20260505151552 40 314 8.7 14.8 0.00 0.00 0.00 60 1019.3
20260505124559 36 11 9.6 12.2 0.00 0.00 0.00 71 1018.6
20260505123054 35 11 7.0 9.6 0.00 0.00 0.00 73 1018.5
20260505121556 34 12 3.5 6.1 0.00 0.00 0.00 73 1018.6
20260505120053 34 12 4.3 8.7 0.00 0.00 0.00 71 1018.4
20260505114557 36 13 7.0 9.6 0.00 0.00 0.00 69 1018.4
20260505113057 36 355 7.0 12.2 0.00 0.00 0.00 67 1018.3
20260505111552 37 360 7.8 12.2 0.00 0.00 0.00 65 1018.1
20260505101551 39 355 7.0 12.2 0.00 0.00 0.00 59 1018.0
20260505100054 39 352 7.0 10.4 0.00 0.00 0.00 59 1017.8
20260505094550 40 9 7.8 11.3 0.00 0.00 0.00 57 1017.8
20260505093048 39 15 3.5 7.0 0.00 0.00 0.00 57 1017.6
20260505091557 39 0 0.0 0.0 0.00 0.00 0.00 57 1017.5
20260505090051 39 0 0.0 0.0 0.00 0.00 0.00 57 1017.5
20260505084551 40 0 0.0 0.0 0.00 0.00 0.00 57 1017.5
20260505083051 40 0 0.0 0.0 0.00 0.00 0.00 57 1017.6
20260505081553 40 0 0.0 5.2 0.00 0.00 0.00 56 1017.5
20260505080103 41 345 3.5 7.0 0.00 0.00 0.00 55 1017.6
20260505074556 41 350 4.3 9.6 0.00 0.00 0.00 54 1017.4
20260505073058 41 342 7.0 13.0 0.00 0.00 0.00 52 1017.4
20260505071550 41 16 9.6 13.0 0.00 0.00 0.00 51 1017.4
20260505070055 39 36 2.6 5.2 0.00 0.00 0.00 54 1017.5
20260505064555 37 46 1.7 4.3 0.00 0.00 0.00 55 1017.5
20260505063111 37 0 1.7 5.2 0.00 0.00 0.00 54 1017.5
20260505061555 37 0 0.0 2.6 0.00 0.00 0.00 54 1017.4
20260505060058 38 46 0.0 3.5 0.00 0.00 0.00 53 1017.2
20260505054608 39 46 3.5 5.2 0.00 0.00 0.00 51 1017.1
20260505053056 40 46 2.6 5.2 0.00 0.00 0.00 51 1017.1
20260505051555 39 46 2.6 4.3 0.00 0.00 0.00 52 1016.9
20260505041600 41 46 3.5 6.1 0.00 0.00 0.00 48 1017.1
20260505040058 42 47 4.3 8.7 0.00 0.00 0.00 46 1016.9
20260505034557 42 51 6.1 8.7 0.00 0.00 0.00 46 1016.7